Washington, NC

6:41 PM EST on February 09, 2016 (GMT -0500)
Warren

Weather History for KOCW - January, 2014

Change the Weather History Date:

Sunday, January 12, 2014

  Actual Average (KEWN) Record (KEWN)
Temperature  
Mean Temperature 48 °F 44 °F  
Max Temperature 58 °F 54 °F 76 °F (2013)
Min Temperature 39 °F 34 °F 15 °F (1982)
Degree Days  
Heating Degree Days 16 21  
Month to date heating degree days 252  
Since 1 July heating degree days 1246  
Cooling Degree Days 0 0  
Month to date cooling degree days 0  
Year to date cooling degree days 0  
Moisture  
Dew Point 39 °F    
Average Humidity 65    
Maximum Humidity 86    
Minimum Humidity 35    
Precipitation  
Precipitation 0.06 in 0.13 in 1.58 in (1994)
Month to date precipitation 1.57  
Year to date precipitation 1.57  
Snow  
Snow 0.00 in - - ()
Month to date snowfall  
Since 1 July snowfall  
Snow Depth -    
Sea Level Pressure  
Sea Level Pressure 29.99 in    
Wind  
Wind Speed 7 mph (ENE)    
Max Wind Speed 15 mph    
Max Gust Speed 22 mph    
Visibility 10 miles    
Events      
T = Trace of Precipitation, MM = Missing Value Source: NWS Daily Summary

Daily Weather History Graph

Daily Weather History Graph

Search for Another Location

Airport or City:

Trip Planner

Search our weather history database for the weather conditions in past years. The results will help you decide how hot, cold, wet, or windy it might be!

Date:

Astronomy

Jan. 12, 2014 Rise Set
Actual Time 7:17 AM EST 5:15 PM EST
Civil Twilight 6:49 AM EST 5:43 PM EST
Nautical Twilight 6:18 AM EST 6:14 PM EST
Astronomical Twilight 5:47 AM EST 6:45 PM EST
Moon 2:41 PM EST (1/12) 4:15 AM EST (1/12)
Length of Visible Light 10h 53m
Length of Day
9h 57m
Waxing Gibbous, 89% of the Moon is Illuminated
Jan 12
Waxing Gibbous
Jan 15
Full
Jan 24
Last Quarter
Jan 30
New
Feb 6
First Quarter

Hourly Weather History & Observations

Time (EST) Temp. Dew Point Humidity Pressure Visibility Wind Dir Wind Speed Gust Speed Precip Events Conditions
12:15 AM 58.1 °F 53.6 °F 85% 29.68 in 10.0 mi ENE 10.4 mph - N/A   Scattered Clouds
12:35 AM 58.1 °F 53.6 °F 85% 29.67 in 10.0 mi NE 6.9 mph - N/A   Clear
12:55 AM 58.1 °F 53.6 °F 85% 29.68 in 10.0 mi NE 8.1 mph - N/A   Scattered Clouds
1:15 AM 58.1 °F 53.6 °F 85% 29.69 in 10.0 mi NE 9.2 mph - N/A   Mostly Cloudy
1:35 AM 58.1 °F 53.6 °F 85% 29.68 in 10.0 mi ENE 10.4 mph - N/A   Scattered Clouds
1:55 AM 58.1 °F 53.6 °F 85% 29.68 in 10.0 mi ENE 8.1 mph - N/A   Clear
2:15 AM 58.1 °F 53.6 °F 85% 29.70 in 10.0 mi ENE 9.2 mph - N/A   Scattered Clouds
2:35 AM 58.1 °F 53.6 °F 85% 29.69 in 10.0 mi ENE 5.8 mph - N/A   Mostly Cloudy
2:55 AM 58.1 °F 53.6 °F 85% 29.73 in 10.0 mi ENE 8.1 mph - N/A   Overcast
3:15 AM 58.1 °F 53.6 °F 85% 29.70 in 10.0 mi ENE 5.8 mph - N/A   Mostly Cloudy
3:35 AM 58.1 °F 53.6 °F 85% 29.71 in 10.0 mi ENE 6.9 mph - N/A   Mostly Cloudy
3:55 AM 58.1 °F 53.6 °F 85% 29.75 in 10.0 mi ENE 4.6 mph - N/A   Scattered Clouds
4:15 AM 55.4 °F 49.1 °F 79% 29.72 in 10.0 mi NE 9.2 mph - N/A   Scattered Clouds
4:35 AM 54.1 °F 45.0 °F 71% 29.76 in 10.0 mi ENE 6.9 mph - N/A   Clear
4:55 AM 52.7 °F 42.4 °F 68% 29.78 in 10.0 mi ENE 9.2 mph - N/A   Scattered Clouds
5:15 AM 52.7 °F 41.4 °F 65% 29.79 in 10.0 mi ENE 8.1 mph - N/A   Clear
5:35 AM 52.7 °F 41.4 °F 65% 29.81 in 10.0 mi NE 5.8 mph - N/A   Clear
5:55 AM 52.7 °F 40.8 °F 64% 29.83 in 10.0 mi ENE 9.2 mph - N/A   Clear
6:15 AM 52.7 °F 41.4 °F 65% 29.86 in 10.0 mi ENE 5.8 mph - N/A   Clear
6:35 AM 52.7 °F 40.5 °F 63% 29.88 in 10.0 mi NE 10.4 mph 19.6 mph N/A   Clear
6:55 AM 50.2 °F 36.3 °F 59% 29.89 in 10.0 mi NE 10.4 mph - N/A   Clear
7:15 AM 50.0 °F 36.7 °F 60% 29.92 in 10.0 mi ENE 6.9 mph - N/A   Clear
7:35 AM 47.7 °F 35.8 °F 63% 29.93 in 10.0 mi ENE 5.8 mph - N/A   Clear
7:55 AM 47.7 °F 36.5 °F 65% 29.94 in 10.0 mi ENE 5.8 mph - N/A   Clear
8:15 AM 47.7 °F 37.2 °F 67% 29.96 in 10.0 mi ENE 5.8 mph - N/A   Clear
8:35 AM 50.2 °F 38.1 °F 63% 29.97 in 10.0 mi ENE 6.9 mph - N/A   Clear
8:55 AM 50.2 °F 37.4 °F 62% 29.99 in 10.0 mi ENE 10.4 mph - N/A   Clear
9:15 AM 50.2 °F 34.9 °F 56% 30.00 in 10.0 mi ENE 12.7 mph 18.4 mph N/A   Clear
9:35 AM 52.7 °F 36.0 °F 53% 30.01 in 10.0 mi NE 9.2 mph 18.4 mph N/A   Clear
9:55 AM 52.7 °F 34.3 °F 50% 30.03 in 10.0 mi ENE 15.0 mph 21.9 mph N/A   Clear
10:15 AM 52.7 °F 32.9 °F 47% 30.04 in 10.0 mi ENE 13.8 mph 20.7 mph N/A   Clear
10:35 AM 52.7 °F 33.3 °F 48% 30.04 in 10.0 mi ENE 12.7 mph 19.6 mph N/A   Clear
10:55 AM 52.7 °F 32.0 °F 45% 30.04 in 10.0 mi NE 12.7 mph 20.7 mph N/A   Clear
11:15 AM 52.7 °F 32.7 °F 47% 30.04 in 10.0 mi ENE 5.8 mph 17.3 mph N/A   Clear
11:35 AM 52.7 °F 32.2 °F 46% 30.03 in 10.0 mi ENE 9.2 mph 17.3 mph N/A   Clear
11:55 AM 52.7 °F 31.8 °F 45% 30.04 in 10.0 mi ENE 11.5 mph 16.1 mph N/A   Clear
12:15 PM 53.4 °F 31.5 °F 43% 30.03 in 10.0 mi ENE 11.5 mph 21.9 mph N/A   Clear
12:35 PM 54.0 °F 32.2 °F 44% 30.03 in 10.0 mi ENE 12.7 mph 16.1 mph N/A   Clear
12:55 PM 54.0 °F 30.7 °F 41% 30.03 in 10.0 mi ENE 13.8 mph 19.6 mph N/A   Clear
1:15 PM 56.3 °F 32.2 °F 40% 30.04 in 10.0 mi ENE 9.2 mph - N/A   Clear
1:35 PM 57.9 °F 33.6 °F 40% 30.04 in 10.0 mi NE 12.7 mph 16.1 mph N/A   Clear
1:55 PM 57.9 °F 33.4 °F 40% 30.04 in 10.0 mi ENE 10.4 mph - N/A   Clear
2:15 PM 58.1 °F 32.9 °F 39% 30.05 in 10.0 mi ENE 9.2 mph 17.3 mph N/A   Clear
2:35 PM 58.1 °F 31.5 °F 36% 30.06 in 10.0 mi ENE 9.2 mph 17.3 mph N/A   Clear
2:55 PM 58.1 °F 31.8 °F 37% 30.06 in 10.0 mi ENE 8.1 mph - N/A   Clear
3:15 PM 58.1 °F 31.3 °F 36% 30.07 in 10.0 mi ENE 8.1 mph - N/A   Clear
3:35 PM 58.1 °F 30.6 °F 35% 30.07 in 10.0 mi ENE 5.8 mph - N/A   Clear
3:55 PM 58.1 °F 30.9 °F 36% 30.08 in 10.0 mi ENE 5.8 mph - N/A   Clear
4:15 PM 58.1 °F 31.1 °F 36% 30.09 in 10.0 mi ENE 4.6 mph - N/A   Clear
4:35 PM 58.1 °F 32.2 °F 38% 30.10 in 10.0 mi NE 3.5 mph - N/A   Clear
4:55 PM 54.0 °F 31.5 °F 42% 30.11 in 10.0 mi ENE 6.9 mph - N/A   Clear
5:15 PM 52.7 °F 32.5 °F 46% 30.12 in 10.0 mi ENE 5.8 mph - N/A   Clear
5:35 PM 52.7 °F 35.8 °F 53% 30.13 in 10.0 mi Calm Calm - N/A   Clear
5:55 PM 49.6 °F 37.8 °F 64% 30.14 in 10.0 mi Calm Calm - N/A   Clear
6:15 PM 48.9 °F 37.4 °F 64% - 10.0 mi Calm Calm - N/A   Clear
6:35 PM 44.1 °F 37.2 °F 77% 30.16 in 10.0 mi Calm Calm - N/A   Clear
6:55 PM 43.9 °F 37.6 °F 78% 30.17 in 10.0 mi Calm Calm - N/A   Clear
7:15 PM 43.9 °F 37.6 °F 78% 30.17 in 10.0 mi Calm Calm - N/A   Clear
7:35 PM 43.3 °F 37.6 °F 80% 30.17 in 10.0 mi Calm Calm - N/A   Clear
7:55 PM 42.8 °F 37.0 °F 80% 30.18 in 10.0 mi Calm Calm - N/A   Clear
8:15 PM 42.6 °F 37.8 °F 83% 30.18 in 10.0 mi Calm Calm - N/A   Clear
8:35 PM 42.8 °F 37.2 °F 81% 30.19 in 10.0 mi Calm Calm - N/A   Clear
8:55 PM 42.8 °F 37.4 °F 81% 30.19 in 10.0 mi Calm Calm - N/A   Clear
9:15 PM 42.8 °F 37.8 °F 82% 30.20 in 10.0 mi Calm Calm - N/A   Clear
9:35 PM 40.3 °F 36.1 °F 85% 30.19 in 10.0 mi Calm Calm - N/A   Clear
9:55 PM 40.1 °F 36.1 °F 86% 30.20 in 10.0 mi Calm Calm - N/A   Clear
10:15 PM 39.2 °F 35.4 °F 86% 30.20 in 10.0 mi Calm Calm - N/A   Clear
10:35 PM 40.1 °F 36.1 °F 86% 30.20 in 10.0 mi Calm Calm - N/A   Clear
10:55 PM 40.1 °F 36.1 °F 86% 30.20 in 10.0 mi Calm Calm - N/A   Clear
11:15 PM 40.1 °F 36.0 °F 85% 30.20 in 10.0 mi Calm Calm - N/A   Clear
11:35 PM 40.1 °F 36.1 °F 86% 30.20 in 10.0 mi Calm Calm - N/A   Clear
11:55 PM 40.1 °F 36.1 °F 86% 30.20 in 10.0 mi Calm Calm - N/A   Clear